• In Deutschland
  • Länderverzeichnis
  • Für 7 Tage
  • Wassertemperatur
  • Satellitenkarten
  • Wetterkarte
  • Widgets
  • user-avatar
    Anmelden

    Stündliche Wetter Newcastle

    Heute, 27 April, Donnerstag

    Zeit Temperatur Niederschläge Wind Luftdruck Luftfeuchtigkeit
    00:00 +11°C° 0 mm 7 m/S 757 mmHg 65%
    01:00 +11°C° 0 mm 6 m/S 757 mmHg 67%
    02:00 +11°C° 0 mm 6 m/S 757 mmHg 69%
    03:00 +10°C° 0 mm 6 m/S 757 mmHg 71%
    04:00 +9°C° 0 mm 5 m/S 758 mmHg 74%
    05:00 +9°C° 0 mm 5 m/S 758 mmHg 75%
    06:00 +9°C° 0 mm 5 m/S 759 mmHg 75%
    07:00 +9°C° 0 mm 5 m/S 759 mmHg 76%
    08:00 +11°C° 0 mm 6 m/S 759 mmHg 67%
    09:00 +13°C° 0 mm 6 m/S 760 mmHg 58%
    10:00 +16°C° 0 mm 5 m/S 760 mmHg 50%
    11:00 +17°C° 0 mm 5 m/S 760 mmHg 47%
    12:00 +19°C° 0 mm 5 m/S 759 mmHg 44%
    13:00 +20°C° 0 mm 5 m/S 759 mmHg 41%
    14:00 +19°C° 0 mm 5 m/S 759 mmHg 43%
    15:00 +19°C° 0 mm 6 m/S 759 mmHg 44%
    16:00 +19°C° 0 mm 6 m/S 760 mmHg 46%
    17:00 +16°C° 0,2 mm 6 m/S 760 mmHg 54%
    18:00 +14°C° 0,2 mm 6 m/S 761 mmHg 62%
    19:00 +11°C° 0,2 mm 6 m/S 761 mmHg 70%
    20:00 +11°C° 0,6 mm 7 m/S 762 mmHg 71%
    21:00 +12°C° 0,6 mm 7 m/S 762 mmHg 72%
    22:00 +12°C° 0,6 mm 7 m/S 762 mmHg 73%
    23:00 +12°C° 0,4 mm 7 m/S 762 mmHg 74%

    Morgen, 28 April, Freitag

    Zeit Temperatur Niederschläge Wind Luftdruck Luftfeuchtigkeit
    00:00 +12°C° 0,4 mm 7 m/S 762 mmHg 74%
    01:00 +12°C° 0,4 mm 7 m/S 763 mmHg 74%
    02:00 +12°C° 0,2 mm 7 m/S 763 mmHg 74%
    03:00 +11°C° 0,2 mm 7 m/S 763 mmHg 73%
    04:00 +11°C° 0,2 mm 7 m/S 763 mmHg 73%
    05:00 +10°C° 0,1 mm 7 m/S 763 mmHg 73%
    06:00 +9°C° 0,1 mm 6 m/S 764 mmHg 72%
    07:00 +9°C° 0,1 mm 6 m/S 764 mmHg 72%
    08:00 +12°C° 0 mm 5 m/S 764 mmHg 65%
    09:00 +14°C° 0 mm 5 m/S 765 mmHg 59%
    10:00 +16°C° 0 mm 5 m/S 765 mmHg 52%
    11:00 +17°C° 0 mm 5 m/S 764 mmHg 49%
    12:00 +19°C° 0 mm 5 m/S 764 mmHg 46%
    13:00 +20°C° 0 mm 4 m/S 764 mmHg 43%
    14:00 +20°C° 0 mm 4 m/S 764 mmHg 45%
    15:00 +20°C° 0 mm 4 m/S 763 mmHg 48%
    16:00 +20°C° 0 mm 4 m/S 763 mmHg 50%
    17:00 +17°C° 0,1 mm 4 m/S 764 mmHg 62%
    18:00 +13°C° 0,1 mm 4 m/S 764 mmHg 75%
    19:00 +11°C° 0,1 mm 3 m/S 764 mmHg 87%
    20:00 +11°C° 0,1 mm 3 m/S 765 mmHg 87%
    21:00 +11°C° 0,1 mm 3 m/S 765 mmHg 88%
    22:00 +11°C° 0,1 mm 3 m/S 765 mmHg 88%
    23:00 +12°C° 0 mm 3 m/S 765 mmHg 86%

    übermorgen, 29 April, Samstag

    Zeit Temperatur Niederschläge Wind Luftdruck Luftfeuchtigkeit
    00:00 +12°C° 0 mm 3 m/S 764 mmHg 83%
    01:00 +12°C° 0 mm 3 m/S 764 mmHg 81%
    02:00 +12°C° 0 mm 3 m/S 764 mmHg 80%
    03:00 +11°C° 0 mm 3 m/S 764 mmHg 79%
    04:00 +11°C° 0 mm 3 m/S 764 mmHg 79%
    05:00 +11°C° 0 mm 3 m/S 764 mmHg 77%
    06:00 +11°C° 0 mm 3 m/S 764 mmHg 75%
    07:00 +11°C° 0 mm 3 m/S 764 mmHg 73%
    08:00 +14°C° 0 mm 3 m/S 764 mmHg 64%
    09:00 +17°C° 0 mm 3 m/S 764 mmHg 55%
    10:00 +20°C° 0 mm 3 m/S 764 mmHg 45%
    11:00 +21°C° 0 mm 2 m/S 764 mmHg 42%
    12:00 +24°C° 0 mm 2 m/S 763 mmHg 38%
    13:00 +25°C° 0 mm 2 m/S 762 mmHg 35%
    14:00 +25°C° 0 mm 2 m/S 762 mmHg 38%
    15:00 +24°C° 0 mm 2 m/S 762 mmHg 41%
    16:00 +24°C° 0 mm 3 m/S 762 mmHg 45%
    17:00 +20°C° 0 mm 3 m/S 763 mmHg 55%
    18:00 +17°C° 0 mm 3 m/S 763 mmHg 65%
    19:00 +14°C° 0 mm 3 m/S 764 mmHg 76%
    20:00 +13°C° 0 mm 3 m/S 764 mmHg 79%
    21:00 +13°C° 0 mm 3 m/S 764 mmHg 83%
    22:00 +12°C° 0 mm 3 m/S 765 mmHg 87%
    23:00 +12°C° 0,1 mm 3 m/S 765 mmHg 87%

    30 April, Sonntag

    Zeit Temperatur Niederschläge Wind Luftdruck Luftfeuchtigkeit
    00:00 +12°C° 0,1 mm 3 m/S 764 mmHg 88%
    01:00 +12°C° 0,1 mm 3 m/S 764 mmHg 89%
    02:00 +13°C° 0,3 mm 4 m/S 764 mmHg 87%
    03:00 +13°C° 0,3 mm 4 m/S 764 mmHg 85%
    04:00 +13°C° 0,3 mm 4 m/S 764 mmHg 84%
    05:00 +13°C° 0,2 mm 5 m/S 764 mmHg 83%
    06:00 +14°C° 0,2 mm 5 m/S 765 mmHg 83%
    07:00 +14°C° 0,2 mm 5 m/S 765 mmHg 83%
    08:00 +16°C° 0,2 mm 5 m/S 765 mmHg 77%
    09:00 +17°C° 0,2 mm 5 m/S 765 mmHg 71%
    10:00 +20°C° 0,2 mm 5 m/S 766 mmHg 65%
    11:00 +20°C° 0,2 mm 4 m/S 765 mmHg 67%
    12:00 +21°C° 0,2 mm 4 m/S 765 mmHg 69%
    13:00 +21°C° 0,2 mm 4 m/S 764 mmHg 70%
    14:00 +20°C° 0,1 mm 3 m/S 764 mmHg 72%
    15:00 +20°C° 0,1 mm 3 m/S 764 mmHg 74%
    16:00 +20°C° 0,1 mm 3 m/S 763 mmHg 76%
    17:00 +18°C° 0 mm 3 m/S 764 mmHg 83%
    18:00 +15°C° 0 mm 2 m/S 764 mmHg 89%
    19:00 +13°C° 0 mm 2 m/S 764 mmHg 96%
    20:00 +13°C° 0 mm 2 m/S 765 mmHg 97%
    21:00 +13°C° 0 mm 1 m/S 765 mmHg 97%
    22:00 +13°C° 0 mm 1 m/S 765 mmHg 97%
    23:00 +13°C° 0 mm 1 m/S 765 mmHg 97%

    1 Mai, Montag

    Zeit Temperatur Niederschläge Wind Luftdruck Luftfeuchtigkeit
    00:00 +13°C° 0 mm 1 m/S 764 mmHg 96%
    01:00 +13°C° 0 mm 1 m/S 764 mmHg 95%
    02:00 +13°C° 0 mm 1 m/S 764 mmHg 96%
    03:00 +12°C° 0 mm 1 m/S 763 mmHg 97%
    04:00 +12°C° 0 mm 1 m/S 763 mmHg 98%
    05:00 +12°C° 0 mm 1 m/S 763 mmHg 98%
    06:00 +13°C° 0 mm 1 m/S 763 mmHg 98%
    07:00 +13°C° 0 mm 1 m/S 764 mmHg 98%
    08:00 +16°C° 0 mm 1 m/S 763 mmHg 87%
    09:00 +19°C° 0 mm 1 m/S 763 mmHg 77%
    10:00 +21°C° 0 mm 2 m/S 763 mmHg 66%
    11:00 +23°C° 0 mm 2 m/S 762 mmHg 60%
    12:00 +24°C° 0 mm 2 m/S 761 mmHg 54%
    13:00 +26°C° 0 mm 2 m/S 760 mmHg 48%
    14:00 +25°C° 0 mm 3 m/S 760 mmHg 51%
    15:00 +25°C° 0 mm 3 m/S 760 mmHg 54%
    16:00 +25°C° 0 mm 3 m/S 759 mmHg 57%
    17:00 +22°C° 0 mm 4 m/S 760 mmHg 65%
    18:00 +20°C° 0 mm 4 m/S 760 mmHg 73%
    19:00 +17°C° 0 mm 5 m/S 760 mmHg 82%
    20:00 +17°C° 0 mm 4 m/S 760 mmHg 84%
    21:00 +17°C° 0 mm 4 m/S 760 mmHg 86%
    22:00 +15°C° 0 mm 4 m/S 760 mmHg 89%
    23:00 +15°C° 0 mm 4 m/S 760 mmHg 86%

    2 Mai, Dienstag

    Zeit Temperatur Niederschläge Wind Luftdruck Luftfeuchtigkeit
    00:00 +14°C° 0 mm 4 m/S 759 mmHg 84%
    01:00 +14°C° 0 mm 3 m/S 759 mmHg 82%
    02:00 +14°C° 0 mm 3 m/S 759 mmHg 81%
    03:00 +14°C° 0 mm 3 m/S 758 mmHg 81%
    04:00 +13°C° 0 mm 3 m/S 758 mmHg 80%
    05:00 +13°C° 0 mm 3 m/S 759 mmHg 79%
    06:00 +13°C° 0 mm 3 m/S 759 mmHg 78%
    07:00 +13°C° 0 mm 3 m/S 759 mmHg 76%
    08:00 +17°C° 0 mm 3 m/S 759 mmHg 66%
    09:00 +19°C° 0 mm 3 m/S 759 mmHg 56%
    10:00 +22°C° 0 mm 3 m/S 759 mmHg 46%
    11:00 +24°C° 0 mm 3 m/S 758 mmHg 43%
    12:00 +25°C° 0 mm 3 m/S 758 mmHg 39%
    13:00 +26°C° 0 mm 3 m/S 757 mmHg 36%
    14:00 +25°C° 0 mm 3 m/S 757 mmHg 40%
    15:00 +25°C° 0 mm 3 m/S 757 mmHg 45%
    16:00 +24°C° 0 mm 3 m/S 757 mmHg 49%
    17:00 +21°C° 0 mm 3 m/S 758 mmHg 58%
    18:00 +18°C° 0 mm 3 m/S 759 mmHg 67%
    19:00 +16°C° 0 mm 3 m/S 759 mmHg 76%
    20:00 +15°C° 0,2 mm 2 m/S 759 mmHg 78%
    21:00 +15°C° 0,2 mm 2 m/S 760 mmHg 81%
    22:00 +14°C° 0,2 mm 2 m/S 760 mmHg 84%
    23:00 +14°C° 0,2 mm 2 m/S 760 mmHg 84%
    Mehr zeigen